Regional Weather Roundup
Issued by NWS

Home | Current Version | Previous Version | Text Only | Print | Product List | Glossary On
Versions: 1 2 3 4 5 6 7 8 9 10 11 12 13 14 15 16 17 18 19 20 21 22 23 24 25 26 27 28 29 30 31 32 33 34 35 36 37 38 39 40 41 42 43 44 45 46 47 48 49 50
000
ASHW40 PHFO 181930
RWRHI

WEATHER ROUNDUP FOR HAWAII
NATIONAL WEATHER SERVICE HONOLULU HI
900 AM HST FRI APR 18 2014

THIS IS AN AUTOMATED REPORT THAT HAS NOT BEEN QUALITY CONTROLLED.

NOTE..."FAIR" INDICATES FEW OR NO CLOUDS BELOW 12,000 FEET WITH NO
SIGNIFICANT WEATHER AND/OR OBSTRUCTIONS TO VISIBILITY.

* - THESE SITES REPORT LIMITED FIELDS

HIZ001>004-182000-
KAUAI-NIIHAU-

CITY           SKY/WX    TMP DP  RH WIND       PRES   REMARKS
LIHUE APT      PTSUNNY   77  72  83 NE14      30.16S
PORT ALLEN*      N/A     79 N/A N/A NE14G20     N/A
POIPU*           N/A     75 N/A N/A NE9G17      N/A
PRINCEVILLE*   NOT AVBL
KOKOLE POINT*    N/A     79  64  61 MISG        N/A
MOLOAA DAIRY*  NOT AVBL
WAIMEA HTS*    NOT AVBL
PUU OPAE*      NOT AVBL
PUU LUA*       NOT AVBL
MAKAHA RIDGE*    N/A     73  66  78 NE5         N/A
$$

HIZ005>011-182000-
OAHU-

CITY           SKY/WX    TMP DP  RH WIND       PRES   REMARKS
HONOLULU       CLOUDY    79  66  64 E12       30.12S
KALAELOA       CLOUDY    79  66  64 VRB5      30.13F
KANEOHE MCB    CLOUDY    75  67  75 E12G20    30.15R
WHEELER FIELD  DRIZZLE   73  68  83 E8        30.15S
BELLOWS*       NOT AVBL
KAHUKU*          N/A    N/A N/A N/A NE5G10      N/A
WHEELER*       NOT AVBL
WAIANAE HARBOR NOT AVBL
DILLINGHAM*    NOT AVBL
KAHUKU TRN*      N/A     73  73 100 E8G18       N/A
KAWAILOA*      NOT AVBL
KII*             N/A     75  70  83 E9G17       N/A
MAKUA RANGE*     N/A     79  70  73 E15G22      N/A
OAHU FOREST NW NOT AVBL
SCHOFIELD BRK*   N/A     79  72  78 MISG        N/A
SCHOFIELD S*     N/A     66 N/A N/A CALM        N/A
WAIANAE VLY*   NOT AVBL
KUAOKALA*      NOT AVBL
HONOULIUULI*   NOT AVBL
MOKUOLOE IS*     N/A    N/A N/A N/A MISG        N/A
PALEHUA*       NOT AVBL
WAIAWA PHB*    NOT AVBL
$$

HIZ012>013-182000-
MOLOKAI-

CITY           SKY/WX    TMP DP  RH WIND       PRES   REMARKS
MOLOKAI AIRPT  PTSUNNY   76  70  82 VRB7      30.14R
KALAUPAPA      NOT AVBL
MAKAPULAPAI*   NOT AVBL
MOLOKAI 1*     NOT AVBL
PUU ALII*        N/A     57  56  95 E3G12       N/A
$$

HIZ016-182000-
KAHOOLAWE-

CITY           SKY/WX    TMP DP  RH WIND       PRES   REMARKS
KAHOOLAWE*     NOT AVBL
HAKIOAWA*        N/A     75  65  71 MISG      30.23F
HONOKANAIA*      N/A     81  68  64 NE17G28   30.13R
KANELOA*       NOT AVBL
KEALIALALO*      N/A    N/A N/A N/A SE23G38     N/A
LUA MAKIKA*    NOT AVBL
$$

HIZ014>015-182000-
LANAI-

CITY           SKY/WX    TMP DP  RH WIND       PRES   REMARKS
LANAI CITY     PTSUNNY   79  64  61 VRB3      30.17S
LANAI 1*       NOT AVBL
$$

HIZ017>028-182000-
MAUI-

CITY           SKY/WX    TMP DP  RH WIND       PRES   REMARKS
KAHULUI        MOSUNNY   78  67  68 E12G24    30.11S
KAPALUA-W MAUI PTSUNNY   77  64  65 SE8G20    30.13
HANA AIRPORT   NOT AVBL
HANA*            N/A     79 N/A N/A E8G14       N/A
HALEAKALA SUMM   N/A     48  18  29 E22G41      N/A
MAALAEA BAY*   NOT AVBL
HALEAKALA*     NOT AVBL
KAUPO GAP*     NOT AVBL
KULA 1*          N/A     57  49  75 NW3G10      N/A
$$

HIZ023>026-182000-
BIG ISLAND OF HAWAII COAST AND LOWER SLOPES-

CITY           SKY/WX    TMP DP  RH WIND       PRES   REMARKS
KAILUA KONA    CLOUDY    80  64  58 S3        30.08S
HILO           PTSUNNY   77  71  82 E16       30.14S
HONOKAA*       NOT AVBL
KAWAIHAE MWT*    N/A     81 N/A N/A E14G25      N/A
KAWAIHAE*        N/A     81 N/A N/A SE9G16      N/A
SOUTH POINT*     N/A     73 N/A N/A NE20G29     N/A
UPOLU AIRPORT*   N/A    N/A N/A N/A E15         N/A
KAMUELA*       MOCLDY    66  61  82 NE15      30.20F
HAKALAU*         N/A     55  54  96 E2          N/A
KALOKO-HONOKO*   N/A     81  63  54 SE3       30.07F
PALI 2*          N/A     66  61  82 NE15G26     N/A
KEALAKOMO*       N/A     75  64  69 NE14        N/A
KAUPULEHU*     NOT AVBL
KAPAPALA*        N/A     73  64  73 E5G16       N/A
LOWER KAHUKU*  NOT AVBL
PUHE CS*       NOT AVBL
PUHO CS*         N/A     81  63  53 NW3         N/A
PTA KEAMUKU*     N/A     66  55  68 W3G12       N/A
WAIKOLOA*      NOT AVBL
$$

HIZ027>028-182000-
BIG ISLAND OF HAWAII INTERIOR AND SUMMMITS-

CITY           SKY/WX    TMP DP  RH WIND       PRES   REMARKS
BRADSHAW FIELD PTSUNNY   57  48  72 W9        30.39F
MK VISITOR CEN NOT AVBL
MAUNA KEA*       N/A     41 -11  10 E38         N/A
MAUNA LOA*       N/A     54 -33   2 MISG        N/A
MAUNA LOA 1*     N/A    N/A N/A N/A MISG        N/A
PTA KIPUKA*      N/A     63  52  67 S3G12       N/A
PTA RANGE 17*    N/A     72  63  73 SW2G12      N/A
PTA WEST*        N/A     63  55  77 NE3         N/A
NENE CABIN*    NOT AVBL
AHUMOA*        NOT AVBL
PTA PORTABLE*  NOT AVBL
PUU MALI*      NOT AVBL
$$

HIC003-182000-
NORTHWEST ISLANDS-

CITY           SKY/WX    TMP DP  RH WIND       PRES   REMARKS
MIDWAY ISLAND  CLOUDY    68  68 100 E10       30.27R
MIDWAY NOS*    NOT AVBL
FRENCH FRIGATE NOT AVBL
$$

PHZ110>124-180-182000-
BUOY REPORTS

STATION/POSITION TIME  TEMP    WIND        PRES    WAVE   SWELL
                       AIR SEA DIR/SP/G            HT/PER HT/DIR
                 (UTC) (F)     (DEG/KT/KT) (MB)    (FT/S) (FT/D)
BUOY 51001       NOT AVBL
BUOY 51101       1900   72 74   60/ 14/ 17 1022.2R   6/11   5/310
BUOY 51100       1800   73      80/ 14       N/A
BUOY 51003       1900   76 78   70/ 10/ 14 1019.4R   6/12   7
BUOY 51004       1900   78 77   70/ 17/ 21 1015.9R   9/ 8   5
BARBERS PT BUOY  NOT AVBL
WAIMEA BAY BUOY  1900      75                N/A     5/12   3/310
KAILUA BAY BUOY  1900      75                N/A     6/ 8   2/340
LANAI BUOY       1900      78                N/A     2/13   2/240
BARBERS PT 2     1900      76                N/A     4/13   3/310
PAUWELA MAUI     NOT AVBL
HILO             1900      78                N/A     8/ 8
KANEOHE BAY BUOY 1900      75                N/A     5/ 9   2/350
HANALEI KAUAI    1900      77                N/A     7/12   3/300
KAHULUI HARBOR   1900   78 76   60/ 13/ 17 1019.7R
HONOLULU HARBOR  1900   77      40/  6/ 12 1020.1F
KILO NALU        NOT AVBL
HILO HARBOR      1900   79 76   90/ 10/ 14 1020.2R
MOKUOLOE         1900   76 76   80/ 13/ 15 1021.0R
NAWILIWILI       1900      77                N/A
WHOTS BUOY       NOT AVBL
BUOY 51028       NOT AVBL
$$

......................KEY........................................
  SKY/WX - SKY CONDITIONS/PRESENT WEATHER
  TMP    - TEMPERATURE IN FAHRENHEIT
  DWPT   - DEWPOINT IN FAHRENHEIT
  RH     - RELATIVE HUMIDITY IN PERCENT
  WIND   - DIRECTION AND SPEED /MPH FOR ISLANDS...KTS FOR BUOYS/
  PRES   - MEAN SEA LEVEL PRESSURE IN INCHES OF HG
  VSB    - VISIBILITY IN MILES
  HX     - HEAT INDEX
  WCI    - WIND CHILL INDEX
  VRB    - VARIABLE WIND DIRECTION
  N/A    - NOT AVAILABLE



USA.gov is the U.S. government's official web portal to all federal, state and local government web resources and services.